Location: Bottom School (historical)
(37.9078°N, 89.3593°W)
Time: 19:16:21
(UTC+00:00)

SL-4 R/B - Pass Details

Date: 06 July 2022
Orbit: 425 x 653 km, 51.6° (Epoch: 16 August)

Event Time Altitude Azimuth Distance (km) Brightness Sun altitude
Rises 07:55:54 0° 306° (NW) 2,480 5.5 -23.8°
Reaches altitude 10° 08:00:03 10° 352° (N) 1,669 5.2 -23.4°
Maximum altitude 08:00:31 10° 359° (N) 1,665 5.3 -23.3°
Drops below altitude 10° 08:01:00 10° 7° (N) 1,685 5.4 -23.3°
Sets 08:05:24 0° 52° (NE) 2,651 6.7 -22.9°
